Location: Pinawa
(50.1500°N, 95.8830°W)
Time: 16:07:07
(UTC-06:00)

ISS - All Passes

Search period start: 18 January 2017 00:00
Search period end: 28 January 2017 00:00
Orbit: 400 x 410 km, 51.6° (Epoch: 19 January)

Date Brightness Start Highest point End Pass type
(mag) Time Alt. Az. Time Alt. Az. Time Alt. Az.
18 Jan - 00:54:21 10° WSW 00:57:34 59° SSE 01:00:47 10° ENE night (unlit)
18 Jan - 02:30:50 10° W 02:34:05 66° N 02:37:20 10° E night (unlit)
18 Jan - 04:07:25 10° WNW 04:10:41 89° SSW 04:13:57 10° ESE night (unlit)
18 Jan - 05:44:10 10° W 05:46:54 25° SW 05:49:38 10° SSE visible
19 Jan - 00:02:26 10° SW 00:05:29 39° SSE 00:08:34 10° E night (unlit)
19 Jan - 01:38:38 10° W 01:41:54 73° N 01:45:09 10° ENE night (unlit)
19 Jan - 03:15:16 10° WNW 03:18:31 74° N 03:21:47 10° E night (unlit)
19 Jan - 04:51:51 10° W 04:54:54 38° SSW 04:57:57 10° SE visible
19 Jan - 23:10:43 10° SSW 23:13:29 26° SE 23:16:15 10° E night (unlit)
20 Jan - 00:46:27 10° WSW 00:49:42 89° NW 00:52:59 10° ENE night (unlit)
20 Jan - 02:23:05 10° W 02:26:19 66° N 02:29:34 10° E night (unlit)
20 Jan - 03:59:37 10° WNW 04:02:49 57° SSW 04:06:01 10° SE night (unlit)
20 Jan - 05:37:06 10° WSW 05:38:46 13° SW 05:40:28 10° S visible
20 Jan - 22:19:20 10° S 22:21:30 17° SE 22:23:41 10° E night (unlit)
20 Jan - 23:54:19 10° WSW 23:57:33 68° SSE 00:00:48 10° ENE night (unlit)
21 Jan - 01:30:51 10° W 01:34:06 64° N 01:37:20 10° E night (unlit)
21 Jan - 03:07:25 10° WNW 03:10:41 81° SSW 03:13:56 10° ESE night (unlit)
21 Jan - 04:44:17 10° W 04:46:50 21° SW 04:49:23 10° SSE night (unlit)
21 Jan - 21:29:09 10° SE 21:29:35 10° SE 21:30:02 10° SE night (unlit)
21 Jan - 23:02:17 10° SW 23:05:25 46° SSE 23:08:34 10° ENE night (unlit)
22 Jan - 00:38:36 10° W 00:41:51 70° N 00:45:07 10° ENE night (unlit)
22 Jan - 02:15:14 10° WNW 02:18:29 80° N 02:21:45 10° E night (unlit)
22 Jan - 03:51:51 10° W 03:54:49 32° SSW 03:57:46 10° SE night (unlit)
22 Jan - 22:10:26 10° SSW 22:13:21 30° SSE 22:16:16 10° E night (unlit)
22 Jan - 23:46:22 10° WSW 23:49:38 83° NNW 23:52:54 10° ENE night (unlit)
23 Jan - 01:23:01 10° WNW 01:26:16 68° N 01:29:30 10° E night (unlit)
23 Jan - 02:59:33 10° WNW 03:02:43 49° SSW 03:05:53 10° SE night (unlit)
23 Jan - 04:37:33 10° WSW 04:38:36 11° SW 04:39:38 10° SSW night (unlit)
23 Jan - 21:18:52 10° S 21:21:19 20° SE 21:23:46 10° E night (unlit)
23 Jan - 22:54:10 10° WSW 22:57:26 76° SSE 23:00:42 10° ENE night (unlit)
24 Jan - 00:30:45 10° W 00:34:00 64° N 00:37:15 10° E night (unlit)
24 Jan - 02:07:18 10° WNW 02:10:33 72° SSW 02:13:48 10° ESE night (unlit)
24 Jan - 03:44:19 10° W 03:46:38 18° SW 03:48:56 10° S night (unlit)
24 Jan - 20:27:54 10° SSE 20:29:20 12° SE 20:30:46 10° ESE night (unlit)
24 Jan - 22:02:03 10° SW 22:05:15 53° SSE 22:08:27 10° ENE night (unlit)
24 Jan - 23:38:28 10° W 23:41:44 67° N 23:44:59 10° ENE night (unlit)
25 Jan - 01:15:05 10° WNW 01:18:20 86° N 01:21:37 10° ESE night (unlit)
25 Jan - 02:51:46 10° W 02:54:36 28° SSW 02:57:26 10° SSE night (unlit)
25 Jan - 21:10:05 10° SW 21:13:06 35° SSE 21:16:08 10° E night (unlit)
25 Jan - 22:46:11 10° W 22:49:27 77° N 22:52:43 10° ENE night (unlit)
26 Jan - 00:22:49 10° WNW 00:26:05 71° N 00:29:20 10° E night (unlit)
26 Jan - 01:59:23 10° W 02:02:29 43° SSW 02:05:36 10° SE night (unlit)
26 Jan - 20:18:21 10° SSW 20:21:01 23° SE 20:23:41 10° E visible
26 Jan - 21:53:55 10° WSW 21:57:12 85° SSE 22:00:28 10° ENE night (unlit)
26 Jan - 23:30:32 10° W 23:33:47 65° N 23:37:02 10° E night (unlit)
27 Jan - 01:07:05 10° WNW 01:10:19 64° SSW 01:13:31 10° ESE night (unlit)
27 Jan - 02:44:18 10° W 02:46:19 15° SW 02:48:19 10° S night (unlit)
27 Jan - 19:27:04 10° S 19:28:58 15° SE 19:30:53 10° ESE visible
27 Jan - 21:01:44 10° WSW 21:04:57 61° SSE 21:08:12 10° ENE night (unlit)
27 Jan - 22:38:13 10° W 22:41:28 65° N 22:44:44 10° E night (unlit)
